Flag for Slovenia Weather past 2 weeks in Ljubljana, Slovenia

Now
59 °F

Light rain. Low clouds.


Feels Like: 59 °F
Forecast: 52 / 63 °F
Wind: 1 mph from Northeast

Location: Ljubljana / Bezigrad

Current Time: Aug 23, 2014 at 10:34:16 PM

Latest Report: Aug 23, 2014 at 9:00 PM


Visibility: 3 mi

Pressure: 29.90 "Hg

Humidity: 96%

Dew point: 58 °F

Location of LjubljanaLocation

Historic Weather in Ljubljana — Graph

°F

Ljubljana temperature yesterday

Maximum temperature yesterday: 70 °F (at 4:00 PM)
Minimum temperature yesterday: 58 °F (at 4:00 AM)
Average temperature yesterday: 63 °F

Past Weeks' High & Low Weather Summary

 TemperatureHumidityPressure
High86 °F (Aug 11, 2:00 PM)98% (Aug 13, 11:00 PM)30.13 "Hg (Aug 13, 11:00 PM)
Low52 °F (Aug 18, 6:00 AM)32% (Aug 17, 4:00 PM)29.67 "Hg (Aug 13, 8:00 PM)
Average66 °F79%29.95 "Hg
* Reported Aug 8 9:00 PM — Aug 23 9:00 PM, Ljubljana, Weather by CustomWeather, © 2014

Note: Actual official high and low records may vary slightly from our data, if they occured in-between our weather recording intervals... More about our weather records

Advertising

Ljubljana weather history for previous 24 hours

 ConditionsComfort  
Time TempWeatherWind HumidityBarometerVisibility
9:00 PM
Aug 23
59 °FLight rain. Low clouds.1 mph96%29.90 "Hg3 mi
8:00 PM59 °FLight rain. Overcast.2 mph96%29.88 "Hg5 mi
7:00 PM59 °FRain. Overcast.3 mph96%29.88 "Hg2 mi
6:00 PM60 °FRain. Overcast.2 mph94%29.88 "Hg3 mi
5:00 PM62 °FLight rain. Overcast.2 mph92%29.89 "Hg5 mi
4:00 PM63 °FLight rain. Overcast.2 mph92%29.91 "Hg2 mi
3:00 PM63 °FLight rain. Low clouds.1 mph93%29.92 "Hg5 mi
2:00 PM62 °FRain. Low clouds.1 mph94%29.95 "Hg3 mi
1:00 PM62 °FRain. Low clouds.1 mph93%29.96 "Hg2 mi
12:00 PM63 °FRain showers. Low clouds.No wind90%29.98 "Hg3 mi
11:00 AM64 °FLow clouds.No wind89%29.98 "Hg3 mi
10:00 AM62 °FFog.No wind90%29.99 "Hg3 mi
9:00 AM61 °FFog.1 mph92%29.98 "Hg3 mi
8:00 AM60 °FFog.No wind93%29.99 "Hg3 mi
7:00 AM60 °FFog.1 mph93%29.99 "Hg3 mi
6:00 AM60 °FFog.1 mph94%29.98 "Hg3 mi
5:00 AM60 °FFog.1 mph96%29.98 "Hg3 mi
4:00 AM59 °FCool.No wind97%29.99 "HgN/A
3:00 AM60 °FCool.1 mph97%30.01 "HgN/A
2:00 AM61 °FCool.No wind95%30.01 "HgN/A
1:00 AM62 °FCool.No wind90%30.01 "HgN/A
12:00 AM63 °FMild.1 mph88%30.00 "HgN/A
11:00 PM
Aug 22
64 °FMild.No wind84%30.00 "HgN/A
10:00 PM65 °FPassing clouds.1 mph83%29.99 "Hg17 mi
Weather by CustomWeather, © 2014

See weather overviewHow to use our weather pages